Location: Bay Ridge
(40.6340°N, 74.0146°W)
Time: 01:58:36
(UTC+00:00)

COSMOS 2455 - Pass Details

Date: 15 November 2019
Orbit: 902 x 908 km, 67.1° (Epoch: 08 December)

Event Time Altitude Azimuth Distance (km) Brightness Sun altitude
Exits shadow 09:41:02 - 344° (NNW) 2,646 5.1 -23.0°
Reaches altitude 10° 09:41:11 10° 345° (NNW) 2,598 5.0 -23.0°
Maximum altitude 09:46:44 37° 52° (NE) 1,371 4.1 -22.0°
Drops below altitude 10° 09:52:15 10° 119° (ESE) 2,583 6.2 -20.9°
Sets 09:54:57 0° 128° (SE) 3,519 6.9 -20.4°
